sat.trackr.live / text

‹ back to catalog

STARLINK-31960

NORAD 59931 · 2024-106K

PAYLOAD ACTIVE UNKNOWN

§ Identity

Operator
Country
US
Launch date
2024-06-01
Launch site
AFETR
Launch vehicle
Mass (kg)
RCS (m²)

Purposes: comms

External: N2YO · Heavens-Above · Gunter

§ Orbital elements

Epoch: 2026-09-21T04:22:50.976480Z

Period
94.27 min
Inclination
43.0030°
Eccentricity
0.0001079
Mean motion
15.27577529 rev/d
Perigee alt
482.3 km
Apogee alt
483.8 km
Semi-major
6,861.2 km
B*
2.0355e-5
RAAN
308.2432°
Arg perigee
248.2739°
Mean anomaly
111.7998°
Rev number
13,042

§ Raw data

STARLINK-319601 59931U 24106K   26264.18253445  .00000298  00000+0  20355-4 0  99992 59931  43.0030 308.2432 0001079 248.2739 111.7998 15.27577529130429

JSON: /api/v1/satellites/59931 · /tle

For live sub-satellite position, see the globe view (requires WebGL).

§ Visibility from observer

Set your observer location to see the next 7 days of passes ≥ 10°. The values pass through the URL so the page stays shareable.

No JS? Fill the form by hand. The geolocation button needs JavaScript.